DCM256 KLAX-KNUQ

Flight info

Callsign DCM256
Flight time 0h 48m
Altitude 40000
Route SUMMR2 SCTRR SNS ZAPEP
Aircraft A343/H-SDE2E3FGHIJ4J5M1RWXY/LB1D1

Departure

Time 2026-04-14 04:59
Airport Los Angeles International Airport (KLAX)

Arrival

Time 2026-04-14 05:48
Airport Moffett Federal Airfield (KNUQ)
Time Latitude Longitude Altitude Speed Heading
2026-04-14 04:42 33.93441 -118.38589 128 ft 0 kts 269°
2026-04-14 04:45 33.93441 -118.38574 124 ft 3 kts 269°
2026-04-14 04:45 33.93442 -118.38550 124 ft 3 kts 287°
2026-04-14 04:46 33.93432 -118.38529 124 ft 3 kts 333°
2026-04-14 04:46 33.93421 -118.38523 124 ft 0 kts 359°
2026-04-14 04:52 33.93435 -118.38523 124 ft 4 kts 359°
2026-04-14 04:53 33.93471 -118.38523 125 ft 7 kts 359°
2026-04-14 04:53 33.93480 -118.38523 127 ft 0 kts 359°
2026-04-14 04:55 33.93490 -118.38522 126 ft 3 kts
2026-04-14 04:56 33.93519 -118.38516 126 ft 6 kts 12°
2026-04-14 04:56 33.93567 -118.38504 125 ft 8 kts 16°
2026-04-14 04:56 33.93593 -118.38463 125 ft 6 kts 80°
2026-04-14 04:56 33.93600 -118.38401 128 ft 9 kts 82°
2026-04-14 04:57 33.93612 -118.38309 125 ft 12 kts 72°
2026-04-14 04:57 33.93641 -118.38282 124 ft 0 kts 14°
2026-04-14 04:57 33.93651 -118.38280 126 ft 3 kts
2026-04-14 04:58 33.93684 -118.38279 127 ft 6 kts 359°
2026-04-14 04:58 33.93723 -118.38303 128 ft 7 kts 304°
2026-04-14 04:58 33.93727 -118.38363 125 ft 8 kts 264°
2026-04-14 04:58 33.93698 -118.38659 128 ft 77 kts 263°
2026-04-14 04:59 33.93600 -118.39619 133 ft 150 kts 263°
2026-04-14 04:59 33.93460 -118.40959 803 ft 165 kts 263°
2026-04-14 04:59 33.93305 -118.42375 1653 ft 178 kts 263°
2026-04-14 04:59 33.93144 -118.43952 2245 ft 207 kts 264°
2026-04-14 05:00 33.92972 -118.45823 2748 ft 240 kts 264°
2026-04-14 05:00 33.92864 -118.47917 3517 ft 258 kts 269°
2026-04-14 05:00 33.92835 -118.50028 4412 ft 252 kts 267°
2026-04-14 05:00 33.92710 -118.52147 5137 ft 256 kts 264°
2026-04-14 05:01 33.92520 -118.54289 6313 ft 258 kts 264°
2026-04-14 05:01 33.92326 -118.56452 7507 ft 261 kts 264°
2026-04-14 05:01 33.92135 -118.58639 8653 ft 265 kts 264°
2026-04-14 05:01 33.91945 -118.60864 9713 ft 269 kts 264°
2026-04-14 05:02 33.91792 -118.63145 10598 ft 281 kts 268°
2026-04-14 05:02 33.91750 -118.65591 11093 ft 303 kts 270°
2026-04-14 05:02 33.91745 -118.68196 11670 ft 319 kts 270°
2026-04-14 05:02 33.91742 -118.70887 11955 ft 322 kts 270°
2026-04-14 05:03 33.91735 -118.73585 12005 ft 323 kts 270°
2026-04-14 05:03 33.91726 -118.76269 12001 ft 324 kts 270°
2026-04-14 05:03 33.91716 -118.78978 12000 ft 324 kts 270°
2026-04-14 05:03 33.91704 -118.81690 12000 ft 324 kts 270°
2026-04-14 05:04 33.91698 -118.84409 12020 ft 324 kts 271°
2026-04-14 05:04 33.91772 -118.87133 12369 ft 328 kts 272°
2026-04-14 05:04 33.91870 -118.89886 13257 ft 330 kts 272°
2026-04-14 05:04 33.91963 -118.92656 14215 ft 332 kts 272°
2026-04-14 05:05 33.92052 -118.95455 15101 ft 336 kts 272°
2026-04-14 05:05 33.92144 -118.98286 15945 ft 341 kts 273°
2026-04-14 05:05 33.92475 -119.01129 16768 ft 345 kts 284°
2026-04-14 05:05 33.93367 -119.03836 17566 ft 350 kts 297°
2026-04-14 05:06 33.94616 -119.06376 18341 ft 355 kts 301°
2026-04-14 05:06 33.95944 -119.08913 19115 ft 360 kts 301°
2026-04-14 05:06 33.97273 -119.11452 19855 ft 364 kts 301°
2026-04-14 05:06 33.98627 -119.14055 20592 ft 368 kts 301°
2026-04-14 05:07 34.00039 -119.16656 21275 ft 373 kts 305°
2026-04-14 05:07 34.01742 -119.19036 21946 ft 378 kts 315°
2026-04-14 05:07 34.03789 -119.21067 22599 ft 383 kts 322°
2026-04-14 05:07 34.05965 -119.22950 23216 ft 388 kts 323°
2026-04-14 05:08 34.08184 -119.24837 23831 ft 391 kts 323°
2026-04-14 05:08 34.10424 -119.26748 24413 ft 395 kts 323°
2026-04-14 05:08 34.12675 -119.28675 24977 ft 399 kts 323°
2026-04-14 05:08 34.14919 -119.30603 25519 ft 402 kts 323°
2026-04-14 05:09 34.17209 -119.32573 26038 ft 406 kts 323°
2026-04-14 05:09 34.19517 -119.34561 26562 ft 409 kts 323°
2026-04-14 05:09 34.21844 -119.36568 27049 ft 412 kts 323°
2026-04-14 05:09 34.24188 -119.38590 27526 ft 415 kts 323°
2026-04-14 05:10 34.26554 -119.40634 27984 ft 419 kts 323°
2026-04-14 05:10 34.28933 -119.42691 28440 ft 422 kts 323°
2026-04-14 05:10 34.31329 -119.44764 28870 ft 425 kts 323°
2026-04-14 05:10 34.33713 -119.46828 29286 ft 427 kts 323°
2026-04-14 05:11 34.36141 -119.48931 29703 ft 430 kts 323°
2026-04-14 05:11 34.38588 -119.51053 30089 ft 433 kts 323°
2026-04-14 05:11 34.41052 -119.53192 30484 ft 436 kts 323°
2026-04-14 05:11 34.43495 -119.55390 30845 ft 439 kts 321°
2026-04-14 05:12 34.45907 -119.57681 31193 ft 442 kts 320°
2026-04-14 05:12 34.48335 -119.59997 31505 ft 446 kts 321°
2026-04-14 05:12 34.50784 -119.62324 31890 ft 447 kts 321°
2026-04-14 05:12 34.53199 -119.64612 32386 ft 445 kts 321°
2026-04-14 05:13 34.55644 -119.66925 32862 ft 444 kts 321°
2026-04-14 05:13 34.58079 -119.69229 33298 ft 444 kts 321°
2026-04-14 05:13 34.60512 -119.71531 33713 ft 444 kts 321°
2026-04-14 05:13 34.62949 -119.73838 34086 ft 444 kts 321°
2026-04-14 05:14 34.65390 -119.76150 34509 ft 444 kts 321°
2026-04-14 05:14 34.67819 -119.78452 34945 ft 442 kts 321°
2026-04-14 05:14 34.70246 -119.80754 35306 ft 442 kts 321°
2026-04-14 05:14 34.72677 -119.83060 35599 ft 444 kts 321°
2026-04-14 05:15 34.75116 -119.85376 35945 ft 444 kts 321°
2026-04-14 05:15 34.77548 -119.87688 36346 ft 443 kts 321°
2026-04-14 05:15 34.79973 -119.89994 36732 ft 441 kts 321°
2026-04-14 05:15 34.82360 -119.92266 37071 ft 441 kts 321°
2026-04-14 05:16 34.84773 -119.94565 37424 ft 440 kts 321°
2026-04-14 05:16 34.87179 -119.96859 37762 ft 439 kts 321°
2026-04-14 05:16 34.89586 -119.99156 38063 ft 439 kts 321°
2026-04-14 05:16 34.91995 -120.01456 38355 ft 439 kts 321°
2026-04-14 05:17 34.94401 -120.03755 38629 ft 439 kts 321°
2026-04-14 05:17 34.96805 -120.06054 38896 ft 440 kts 321°
2026-04-14 05:17 34.99183 -120.08330 39177 ft 439 kts 321°
2026-04-14 05:17 35.01588 -120.10634 39470 ft 439 kts 320°
2026-04-14 05:18 35.03996 -120.12941 39725 ft 439 kts 320°
2026-04-14 05:18 35.06396 -120.15244 39948 ft 440 kts 320°
2026-04-14 05:18 35.08812 -120.17564 40000 ft 445 kts 320°
2026-04-14 05:19 35.13746 -120.22308 40004 ft 457 kts 320°
2026-04-14 05:19 35.18766 -120.27126 40003 ft 458 kts 321°
2026-04-14 05:20 35.23844 -120.31744 39999 ft 457 kts 322°
2026-04-14 05:20 35.28952 -120.36389 40000 ft 458 kts 322°
2026-04-14 05:21 35.34053 -120.41056 39999 ft 457 kts 322°
2026-04-14 05:21 35.39130 -120.45714 39721 ft 451 kts 322°
2026-04-14 05:21 35.41623 -120.48004 39477 ft 444 kts 322°
2026-04-14 05:22 35.44075 -120.50260 39217 ft 438 kts 322°
2026-04-14 05:22 35.46504 -120.52496 38964 ft 436 kts 322°
2026-04-14 05:22 35.48901 -120.54705 38720 ft 436 kts 322°
2026-04-14 05:22 35.51325 -120.56941 38471 ft 436 kts 322°
2026-04-14 05:23 35.53750 -120.59180 38217 ft 436 kts 322°
2026-04-14 05:23 35.56197 -120.61390 37957 ft 436 kts 323°
2026-04-14 05:23 35.58665 -120.63563 37737 ft 436 kts 323°
2026-04-14 05:23 35.61142 -120.65726 37482 ft 436 kts 323°
2026-04-14 05:24 35.62777 -120.67153 37314 ft 436 kts 323°
2026-04-14 05:24 35.65245 -120.69314 37066 ft 435 kts 323°
2026-04-14 05:24 35.67708 -120.71481 36809 ft 435 kts 323°
2026-04-14 05:24 35.70172 -120.73657 36570 ft 435 kts 323°
2026-04-14 05:25 35.72630 -120.75836 36335 ft 435 kts 323°
2026-04-14 05:25 35.75086 -120.78017 36074 ft 436 kts 323°
2026-04-14 05:25 35.77545 -120.80202 35821 ft 435 kts 323°
2026-04-14 05:25 35.80001 -120.82387 35574 ft 436 kts 323°
2026-04-14 05:26 35.82462 -120.84578 35325 ft 436 kts 323°
2026-04-14 05:26 35.84925 -120.86772 35066 ft 437 kts 323°
2026-04-14 05:26 35.87388 -120.88967 34812 ft 437 kts 323°
2026-04-14 05:26 35.89854 -120.91167 34587 ft 438 kts 323°
2026-04-14 05:27 35.92324 -120.93372 34328 ft 438 kts 323°
2026-04-14 05:27 35.94792 -120.95577 33787 ft 438 kts 323°
2026-04-14 05:27 35.97260 -120.97783 33095 ft 440 kts 323°
2026-04-14 05:27 35.99719 -120.99984 32374 ft 442 kts 323°
2026-04-14 05:28 36.02219 -121.02223 31612 ft 444 kts 323°
2026-04-14 05:28 36.04731 -121.04474 30838 ft 446 kts 323°
2026-04-14 05:28 36.07233 -121.06718 30278 ft 442 kts 323°
2026-04-14 05:28 36.09715 -121.08945 29714 ft 439 kts 323°
2026-04-14 05:29 36.12171 -121.11151 29130 ft 435 kts 322°
2026-04-14 05:29 36.14620 -121.13351 28541 ft 432 kts 322°
2026-04-14 05:29 36.17045 -121.15533 27960 ft 429 kts 322°
2026-04-14 05:29 36.19452 -121.17701 27386 ft 426 kts 322°
2026-04-14 05:30 36.21837 -121.19850 26814 ft 422 kts 322°
2026-04-14 05:30 36.24207 -121.21987 26219 ft 420 kts 322°
2026-04-14 05:30 36.26560 -121.24111 25623 ft 417 kts 322°
2026-04-14 05:30 36.28863 -121.26191 25071 ft 413 kts 322°
2026-04-14 05:31 36.31177 -121.28283 24505 ft 410 kts 322°
2026-04-14 05:31 36.33470 -121.30358 23920 ft 406 kts 322°
2026-04-14 05:31 36.35721 -121.32396 24152 ft 403 kts 323°
2026-04-14 05:31 36.37981 -121.34445 23465 ft 402 kts 323°
2026-04-14 05:32 36.40222 -121.36477 22680 ft 394 kts 323°
2026-04-14 05:32 36.42423 -121.38474 21885 ft 388 kts 323°
2026-04-14 05:32 36.44595 -121.40446 21325 ft 384 kts 323°
2026-04-14 05:32 36.46736 -121.42392 20799 ft 379 kts 323°
2026-04-14 05:33 36.48852 -121.44316 20277 ft 374 kts 323°
2026-04-14 05:33 36.50941 -121.46217 19763 ft 370 kts 323°
2026-04-14 05:33 36.53007 -121.48099 19239 ft 367 kts 324°
2026-04-14 05:34 36.57085 -121.51816 18186 ft 360 kts 324°
2026-04-14 05:34 36.59094 -121.53650 17650 ft 356 kts 324°
2026-04-14 05:34 36.61049 -121.55436 17159 ft 351 kts 324°
2026-04-14 05:34 36.63010 -121.57227 16659 ft 347 kts 324°
2026-04-14 05:35 36.64947 -121.58996 16133 ft 344 kts 324°
2026-04-14 05:35 36.66965 -121.60596 15476 ft 345 kts 330°
2026-04-14 05:35 36.69055 -121.62069 14915 ft 343 kts 331°
2026-04-14 05:35 36.71149 -121.63471 14436 ft 340 kts 332°
2026-04-14 05:36 36.73239 -121.64832 13931 ft 338 kts 333°
2026-04-14 05:36 36.75318 -121.66172 13396 ft 334 kts 333°
2026-04-14 05:36 36.77381 -121.67501 12909 ft 332 kts 333°
2026-04-14 05:36 36.79421 -121.68819 12426 ft 328 kts 333°
2026-04-14 05:37 36.81441 -121.70129 11952 ft 325 kts 332°
2026-04-14 05:37 36.83433 -121.71427 11473 ft 322 kts 332°
2026-04-14 05:37 36.85400 -121.72710 11001 ft 322 kts 332°
2026-04-14 05:37 36.87373 -121.73999 10749 ft 315 kts 332°
2026-04-14 05:38 36.89274 -121.75244 10601 ft 303 kts 332°
2026-04-14 05:38 36.91104 -121.76444 10481 ft 292 kts 332°
2026-04-14 05:38 36.92869 -121.77603 10322 ft 283 kts 332°
2026-04-14 05:38 36.94599 -121.78740 10034 ft 279 kts 332°
2026-04-14 05:39 36.96313 -121.79864 9674 ft 277 kts 332°
2026-04-14 05:39 36.98012 -121.80979 9346 ft 274 kts 332°
2026-04-14 05:39 36.99692 -121.82081 8990 ft 272 kts 332°
2026-04-14 05:39 37.01375 -121.83185 8591 ft 273 kts 332°
2026-04-14 05:40 37.03052 -121.84288 8220 ft 271 kts 332°
2026-04-14 05:40 37.04720 -121.85385 7857 ft 270 kts 332°
2026-04-14 05:40 37.06379 -121.86477 7504 ft 269 kts 332°
2026-04-14 05:40 37.08024 -121.87525 7139 ft 267 kts 335°
2026-04-14 05:41 37.09730 -121.88450 6786 ft 266 kts 336°
2026-04-14 05:41 37.11436 -121.89341 6396 ft 265 kts 337°
2026-04-14 05:41 37.13143 -121.90221 6034 ft 264 kts 337°
2026-04-14 05:41 37.14836 -121.91091 5648 ft 262 kts 337°
2026-04-14 05:42 37.16492 -121.91951 5510 ft 253 kts 336°
2026-04-14 05:42 37.18083 -121.92792 5438 ft 242 kts 338°
2026-04-14 05:42 37.19595 -121.93563 5290 ft 226 kts 338°
2026-04-14 05:42 37.21008 -121.94270 5095 ft 212 kts 339°
2026-04-14 05:43 37.22370 -121.94934 4838 ft 210 kts 339°
2026-04-14 05:43 37.23722 -121.95597 4410 ft 208 kts 338°
2026-04-14 05:43 37.25058 -121.96267 3918 ft 204 kts 338°
2026-04-14 05:43 37.26349 -121.96929 3449 ft 197 kts 338°
2026-04-14 05:44 37.27596 -121.97576 2955 ft 191 kts 338°
2026-04-14 05:44 37.28788 -121.98196 2573 ft 183 kts 338°
2026-04-14 05:44 37.29928 -121.98786 2317 ft 171 kts 338°
2026-04-14 05:44 37.30998 -121.99332 2014 ft 164 kts 338°
2026-04-14 05:45 37.32049 -121.99857 1718 ft 158 kts 338°
2026-04-14 05:45 37.33015 -122.00344 1582 ft 139 kts 337°
2026-04-14 05:45 37.33856 -122.00794 1437 ft 127 kts 335°
2026-04-14 05:45 37.34659 -122.01213 1274 ft 125 kts 335°
2026-04-14 05:46 37.35455 -122.01636 1119 ft 125 kts 338°
2026-04-14 05:46 37.36265 -122.02048 960 ft 125 kts 337°
2026-04-14 05:46 37.37070 -122.02458 812 ft 125 kts 337°
2026-04-14 05:46 37.37870 -122.02870 670 ft 124 kts 336°
2026-04-14 05:47 37.38662 -122.03276 488 ft 124 kts 336°
2026-04-14 05:47 37.39465 -122.03698 323 ft 124 kts 336°
2026-04-14 05:47 37.40242 -122.04103 140 ft 121 kts 335°
2026-04-14 05:47 37.40995 -122.04491 59 ft 98 kts 338°
2026-04-14 05:48 37.41351 -122.04669 57 ft 12 kts 337°
2026-04-14 05:48 37.41371 -122.04679 57 ft 5 kts 337°
2026-04-14 05:48 37.41427 -122.04709 55 ft 11 kts 337°
2026-04-14 05:48 37.41515 -122.04755 52 ft 17 kts 337°
2026-04-14 05:49 37.41637 -122.04820 49 ft 21 kts 337°
2026-04-14 05:49 37.41779 -122.04892 50 ft 23 kts 338°
2026-04-14 05:49 37.41830 -122.04911 46 ft 6 kts 356°
2026-04-14 05:49 37.41872 -122.04873 47 ft 9 kts 62°
2026-04-14 05:50 37.41900 -122.04776 43 ft 14 kts 69°
2026-04-14 05:50 37.41893 -122.04688 46 ft 6 kts 144°
2026-04-14 05:50 37.41853 -122.04668 45 ft 7 kts 158°
2026-04-14 05:50 37.41829 -122.04637 46 ft 4 kts 110°
2026-04-14 05:51 37.41833 -122.04595 46 ft 6 kts 77°
2026-04-14 05:51 37.41852 -122.04533 46 ft 9 kts 69°
2026-04-14 05:51 37.41844 -122.04501 46 ft 4 kts 127°
2026-04-14 05:51 37.41825 -122.04488 47 ft 4 kts 154°
2026-04-14 05:52 37.41808 -122.04478 51 ft 2 kts 153°
2026-04-14 05:52 37.41805 -122.04476 49 ft 0 kts 154°